Погода в Новобелокатае

Россия / Республика Башкортостан     55°42′27″N   58°57′33″E
темп.,
°C
ветер,
м/с
пор.,
м/с
влажн.,
%
обл.,
%
осадки,
мм/ч
давл.,
гПа
погр.,
м
19 мая, ср
ср1923:00+16всв6106671 0.0 1019731
02:00+12в511820 0.0 1021601
05:00+11в410803 0.0 1022434
08:00+13в57662 0.0 1023689
11:00+17в56500 0.0 10231081
14:00+20в56409 0.0 10221418
17:00+21в443791 0.0 10211661
20:00+17в35575 0.0 102279
20 мая, чт
чт2023:00+12вюв236623 0.0 102346
02:00+11юв22715 0.0 102315
05:00+10вюв217557 0.0 102410
08:00+15юв24595 0.0 1023277
11:00+20ю23437 0.0 10231128
14:00+23ююв133212 0.0 10211636
17:00+24ююв1329100 0.0 10192020
20:00+19вюв225074 0.0 101929
21 мая, пт
пт2123:00+15ююв225436 0.0 102014
02:00+13юв22564 0.0 102010
05:00+12юв22585 0.0 102010
08:00+17ююв23500 0.0 1020170
11:00+23ю34330 0.0 10191301
14:00+25юз36311 0.0 10182323
17:00+21зюз5105055 0.0 1018532
20:00+19зюз3670100 0.0 1018142
22 мая, сб
сб2223:00+15ююз228053 0.0 101911
02:00+14ю2285100 0.0 101910
05:00+13ююз229052 0.1 102018
08:00+15ююз2483100 0.0 1020195
11:00+20зюз5661100 0.1 10201147
14:00+22з5745100 0.1 10202115
17:00+22з574556 0.1 10202011
20:00+18зсз496572 0.0 1020338
23 мая, вс
вс2323:00+13з127755 0.0 102121
02:00+13ю228099 0.0 102014
05:00+12ссз31097100 4.3 1022575
08:00+13сз2390100 4.7 1024437
11:00+17з1167100 4.8 10241029
14:00+19зюз1157100 0.0 10241048
17:00+20зюз2256100 0.0 1023938
20:00+18с1172100 0.0 102311